Find Starlink 32006

NORAD ID: 60029 Int'l Des: 2024-111 Owner: SPXS Country: US Constellation: starlink operational
LEOCIRCULAR

Live Position

Loading 3D Globe...

About Starlink 32006

Description loading...

Upcoming Passes

Passes for default location (London). Set your location on the main map for personalized predictions.

Altitude History

Loading altitude history...

Two-Line Element Set

1 60029U 24111P 26126.49430388 -.00002052 00000-0 -57203-4 0 9994
2 60029 53.1612 167.1282 0001041 94.2760 265.8360 15.30189294107884
Epoch: May 6, 2026 • Age: 9 hours

Current Status

Altitude 491.5 km
Velocity 7.62 km/s
Sub-Earth Point -45.78°S, 64.22°W
Launch Date Jun 8, 2024
Age 1.9 years
Type internet

Technical Details

Classification Payload
Mass 730.00 kg
Dry Mass 700.00 kg
Total Mass 730.00 kg
Length 0.30 m
Diameter 4.10 m
Span 29.00 m
Shape Box + pan
Manufacturer SPXS
Bus Type Starlink V2M
Phase Status In Orbit
Owner/State SPXS/US

Most Searched